Simultaneous Nadir Overpasses (SNOs) Predictions

Prediction of SNOs between NPP and TERRA Satellite Orbit:

Table of predicted SNOs for the next 14.0 days since TLE Epoch: 9/10/2022
Index Date (NPP) Time (NPP) Lat,Lon (NPP) SZA (NPP ) Date (TERRA) Time (TERRA) Lat,Lon (TERRA) SZA (TERRA ) Distance(km) Time Diff (sec)
1 09/10/2022 15:58:11 -70.87, 115.69 113.96 09/10/2022 15:59:17 -70.80, 118.20 114.07 92.01 66
2 09/10/2022 16:48:39 69.91, -75.49 65.07 09/10/2022 16:48:58 69.92, -75.43 65.08 2.75 19
3 09/10/2022 17:39:20 -69.77, 92.04 115.06 09/10/2022 17:38:29 -69.76, 91.98 115.08 2.94 51
4 09/13/2022 08:14:50 -69.96,-127.10 113.88 09/13/2022 08:15:56 -69.95,-127.16 113.90 2.81 66
5 09/13/2022 09:05:34 69.84, 40.38 66.02 09/13/2022 09:05:23 69.83, 40.32 66.00 2.55 11
6 09/13/2022 09:56:09 -69.38,-151.63 114.44 09/13/2022 09:54:58 -69.45,-152.56 114.36 37.14 71
7 09/16/2022 00:31:46 -69.94, -11.31 112.87 09/16/2022 00:32:19 -69.95, -11.27 112.87 1.80 33
8 09/16/2022 01:22:30 69.83, 156.17 67.03 09/16/2022 01:21:46 69.84, 156.21 67.04 1.77 44
9 09/18/2022 15:58:00 70.08, -63.07 68.29 09/18/2022 15:59:11 70.05, -62.89 68.26 7.70 71
10 09/18/2022 16:48:40 -69.88, 104.55 111.91 09/18/2022 16:48:42 -69.89, 104.52 111.89 1.99 2
11 09/18/2022 17:39:23 69.72, -87.89 67.95 09/18/2022 17:38:10 69.72, -88.07 67.95 6.82 73
12 09/21/2022 08:14:54 69.97, 52.87 69.21 09/21/2022 08:15:35 69.98, 52.89 69.22 1.11 41
13 09/21/2022 09:05:36 -69.87,-139.66 110.88 09/21/2022 09:05:05 -69.88,-139.62 110.88 1.73 31
14 09/23/2022 23:41:15 -70.54, 0.43 109.18 09/23/2022 23:42:25 -70.40, 1.72 109.34 50.52 70
15 09/24/2022 00:31:49 69.92, 168.72 70.20 09/24/2022 00:31:58 69.94, 168.72 70.22 3.25 9
16 09/24/2022 01:22:31 -69.81, -23.81 109.90 09/24/2022 01:21:29 -69.79, -23.86 109.92 3.25 62



Historial Predications of SNOs between NPP and TERRA
